Retour au catalogue

CHINASAT 22A

ActifCommunicationsGEO
NORAD 29398·PAYLOAD·🇨🇳 China

Lancé Sep 12, 2006 depuis Xichang Satellite Launch Center

Loading…

TLE

FraisSource: Space-Track

Époque: Sep 14, 2026, 07:31 UTC

1 29398U 06038A   26257.31347115 -.00000370  00000-0  00000-0 0  9996
2 29398  11.6509  36.5804 0003931 153.8212  34.3919  1.00085624 73273

Suivez CHINASAT 22A en temps réel avec AllMySat

Download on the App Store